CAPE
5 7 5 3 4 2 3 3 1 4 6 6 7 7 3 2 1 2 1 0 0 0 0 0 0 0 0 0 0 0 0 0 0 0 0 0 0 0 0 0 0 5 0 0 0 0 1
2 4 2 9 3 2 2 4 3 6 5 5 5 4 4 3 1 2 1 0 0 0 0 0 0 0 0 0 0 0 0 0 0 0 0 0 0 0 0 0 0 0 0 0 0 0 0
5 13 3 1 2 3 2 1 4 6 4 4 5 4 2 2 2 1 1 0 0 0 0 0 0 0 0 0 0 0 0 0 0 0 0 0 0 0 0 0 0 0 0 0 0 0 1
7 5 7 2 5 3 5 5 7 7 5 5 4 4 2 1 0 0 0 0 0 0 0 0 0 0 0 0 0 0 0 0 0 0 0 0 0 0 0 0 0 0 0 0 0 0 1
4 5 4 6 4 4 5 5 2 6 5 3 4 4 2 1 0 0 0 0 0 0 0 0 0 0 0 0 0 0 0 0 0 0 0 0 0 0 0 0 0 0 0 0 0 0 0
1 1 3 4 4 7 6 7 5 6 3 3 2 2 1 1 0 0 0 0 0 0 0 0 0 0 0 0 0 0 0 0 0 0 0 0 0 0 0 0 0 0 0 0 0 0 0
2 1 2 3 3 3 7 6 5 4 1 1 0 1 0 0 0 0 0 0 0 0 0 0 0 0 0 0 0 0 0 0 0 0 0 0 0 0 0 0 0 0 0 0 0 0 0
5 2 3 6 3 5 2 2 1 1 0 0 0 0 0 0 0 0 0 0 0 0 0 0 0 0 0 0 0 0 0 0 0 0 0 0 0 0 0 0 0 0 0 0 0 0 0
2 6 5 5 6 5 3 2 2 1 0 0 0 0 0 0 0 0 0 0 0 0 0 0 0 0 0 0 0 0 0 0 0 0 0 0 0 0 0 0 0 0 0 0 0 0 0
0 0 1 2 3 3 2 2 1 0 1 0 0 0 0 0 0 0 0 0 0 0 0 0 0 0 0 0 0 0 0 0 0 0 0 0 0 0 0 0 0 0 0 0 0 0 0
0 0 0 0 0 0 0 0 0 0 0 0 0 0 0 0 0 0 0 0 0 0 0 0 0 0 0 0 0 0 0 0 0 0 0 0 0 0 0 0 0 0 0 0 0 0 0
7 7 4 3 1 1 0 0 0 0 0 0 0 0 0 0 0 0 0 0 0 0 0 0 0 0 0 0 0 0 0 0 0 0 0 0 0 0 0 0 0 0 0 0 0 0 0
34 38 41 36 22 17 8 2 0 0 0 0 0 0 0 0 0 0 0 0 0 0 0 0 0 0 0 0 0 0 0 0 0 0 0 0 0 0 0 0 0 0 0 0 0 0 0
2 2 1 1 11 31 28 19 11 1 0 0 0 0 0 0 0 0 0 0 0 0 0 0 0 0 0 0 0 0 0 0 0 0 0 0 0 0 0 0 0 0 0 0 0 0 0
3 4 4 7 11 6 6 31 18 10 0 0 0 0 0 0 0 0 0 0 0 0 0 0 0 0 0 0 0 0 0 0 0 0 0 0 0 0 0 0 0 0 0 0 0 0 0
5 5 8 9 5 5 3 3 13 20 2 0 0 0 0 0 0 0 0 0 0 0 0 0 0 0 0 0 0 0 0 0 0 0 0 0 0 0 0 0 0 0 0 0 0 0 0
24 18 16 5 3 3 4 5 5 3 14 0 0 0 0 0 0 0 0 0 0 0 0 0 0 0 0 0 0 0 0 0 0 0 0 0 0 0 0 0 0 0 0 0 0 0 0
15 13 12 13 9 4 4 5 2 6 10 0 0 0 0 0 0 0 0 0 0 0 0 0 0 0 0 0 0 0 0 0 0 0 0 0 0 0 0 0 0 0 0 0 0 0 0
6 9 9 8 13 8 4 3 4 3 5 0 0 0 0 0 0 0 0 0 0 0 0 0 0 0 0 0 0 0 0 0 0 0 0 0 0 0 0 0 0 0 0 0 0 0 0
19 11 14 9 3 5 5 3 3 3 2 2 0 0 0 0 0 0 0 0 0 0 0 0 0 0 0 0 0 0 0 0 0 0 0 0 0 0 0 0 0 0 0 0 0 0 0
6 11 34 33 31 26 15 18 9 7 1 6 16 0 0 0 0 0 0 0 0 0 0 0 0 0 0 0 0 0 0 0 0 0 0 0 0 0 0 0 0 0 0 0 0 0 0
18 7 16 46 38 20 15 5 14 21 1 36 58 29 3 0 0 0 0 0 0 0 0 0 0 0 0 0 0 0 0 0 0 0 0 0 0 0 0 0 0 0 0 0 0 0 0
18 20 24 31 43 30 18 10 19 21 8 5 0 0 11 16 9 2 0 0 0 0 0 0 0 0 0 0 0 0 0 0 0 0 0 0 0 0 0 0 0 0 0 0 0 0 0
22 20 18 25 27 30 34 16 18 21 31 28 19 8 8 8 16 17 7 0 0 0 0 0 0 0 0 0 0 0 0 0 0 0 0 0 0 0 0 0 0 0 0 0 0 0 0
34 19 14 22 34 46 34 23 14 21 37 20 32 32 41 13 9 3 7 14 11 4 0 0 0 0 0 0 0 0 0 0 0 0 0 0 0 0 0 0 0 0 0 0 0 0 0
30 37 25 13 33 46 44 36 39 19 30 31 17 37 23 29 3 4 5 1 1 8 17 1 0 0 0 0 0 0 0 0 0 0 0 0 0 0 0 0 0 0 0 0 0 0 0
43 34 16 16 22 20 38 55 37 25 32 43 40 25 33 24 1 0 1 0 34 49 13 8 0 0 0 0 0 0 0 0 0 0 0 0 0 0 0 0 0 0 0 0 0 0 0
35 50 41 10 19 24 43 37 46 42 31 33 56 26 33 24 2 0 0 0 2 5 1 1 0 0 0 0 0 0 0 0 0 0 0 0 0 0 0 0 0 0 0 0 0 0 0
38 38 55 61 21 18 32 22 29 40 30 48 41 32 39 25 9 0 0 0 4 5 20 16 1 10 2 0 0 0 0 0 0 0 0 0 0 0 0 0 0 0 0 0 0 0 0
CIN
-0 -0 -0 -0 -0 -0 -0 -0 -0 -0 -0 -0 -0 -0 -0 -0 -0 -0 -0 -0 -0 -0 -0 -0 -0 -0 -0 -0 -0 -0 -0 -0 -0 -0 -0 -0 -0 -0 -0 -0 -0 -17 -0 -0 -0 -0 -9
-0 -0 -0 -0 -0 -0 -0 -0 -0 -0 -0 -0 -0 -0 -0 -0 -0 -0 -0 -0 -0 -0 -0 -0 -0 -0 -0 -0 -0 -0 -0 -0 -0 -0 -0 -0 -0 -0 -0 -0 -0 -0 -0 -0 -0 -0 -0
-0 -1 -0 -0 -0 -0 -0 -0 -0 -0 -0 -0 -0 -0 -0 -0 -0 -0 -0 -0 -0 -0 -0 -0 -0 -0 -0 -0 -0 -0 -0 -0 -0 -0 -0 -0 -0 -0 -0 -0 -0 -0 -0 -0 -0 -0 -29
-0 -0 -0 -0 -0 -0 -0 -0 -0 -0 -0 -0 -0 -0 -0 -0 -0 -0 -0 -0 -0 -0 -0 -0 -0 -0 -0 -0 -0 -0 -0 -0 -0 -0 -0 -0 -0 -0 -0 -0 -0 -0 -0 -0 -0 -0 -76
-0 -0 -0 -0 -0 -0 -0 -0 -0 -0 -0 -0 -0 -0 -0 -0 -0 -0 -0 -0 -0 -0 -0 -0 -0 -0 -0 -0 -0 -0 -0 -0 -0 -0 -0 -0 -0 -0 -0 -0 -0 -0 -0 -0 -0 -0 -0
-0 -0 -0 -0 -0 -0 -0 -0 -0 -0 -0 -0 -0 -0 -0 -0 -0 -0 -0 -0 -0 -0 -0 -0 -0 -0 -0 -0 -0 -0 -0 -0 -0 -0 -0 -0 -0 -0 -0 -0 -0 -0 -0 -0 -0 -0 -0
-0 -0 -0 -0 -0 -0 -0 -0 -0 -0 -0 -0 -0 -0 -0 -0 -0 -0 -0 -0 -0 -0 -0 -0 -0 -0 -0 -0 -0 -0 -0 -0 -0 -0 -0 -0 -0 -0 -0 -0 -0 -0 -0 -0 -0 -0 -0
-0 -0 -0 -0 -0 -0 -0 -0 -0 -0 -0 -0 -0 -0 -0 -0 -0 -0 -0 -0 -0 -0 -0 -0 -0 -0 -0 -0 -0 -0 -0 -0 -0 -0 -0 -0 -0 -0 -0 -0 -0 -0 -0 -0 -0 -0 -0
-0 -0 -0 -0 -0 -0 -0 -0 -0 -0 -0 -0 -0 -0 -0 -0 -0 -0 -0 -0 -0 -0 -0 -0 -0 -0 -0 -0 -0 -0 -0 -0 -0 -0 -0 -0 -0 -0 -0 -0 -0 -0 -0 -0 -0 -0 -0
-0 -0 -0 -0 -0 -0 -0 -0 -0 -0 -0 -0 -0 -0 -0 -0 -0 -0 -0 -0 -0 -0 -0 -0 -0 -0 -0 -0 -0 -0 -0 -0 -0 -0 -0 -0 -0 -0 -0 -0 -0 -0 -0 -0 -0 -0 -0
-0 -0 -0 -0 -0 -0 -0 -0 -0 -0 -0 -0 -0 -0 -0 -0 -0 -0 -0 -0 -0 -0 -0 -0 -0 -0 -0 -0 -0 -0 -0 -0 -0 -0 -0 -0 -0 -0 -0 -0 -0 -0 -0 -0 -0 -0 -0
-11 -11 -9 -7 -2 -0 -0 -0 -0 -0 -0 -0 -0 -0 -0 -0 -0 -0 -0 -0 -0 -0 -0 -0 -0 -0 -0 -0 -0 -0 -0 -0 -0 -0 -0 -0 -0 -0 -0 -0 -0 -0 -0 -0 -0 -0 -0
-0 -0 -0 -0 -1 -5 -3 -0 -0 -0 -0 -0 -0 -0 -0 -0 -0 -0 -0 -0 -0 -0 -0 -0 -0 -0 -0 -0 -0 -0 -0 -0 -0 -0 -0 -0 -0 -0 -0 -0 -0 -0 -0 -0 -0 -0 -0
-0 -0 -0 -3 -4 -0 -0 -3 -0 -0 -0 -0 -0 -0 -0 -0 -0 -0 -0 -0 -0 -0 -0 -0 -0 -0 -0 -0 -0 -0 -0 -0 -0 -0 -0 -0 -0 -0 -0 -0 -0 -0 -0 -0 -0 -0 -0
-0 -0 -0 -0 -0 -0 -11 -0 -1 -5 -0 -0 -0 -0 -0 -0 -0 -0 -0 -0 -0 -0 -0 -0 -0 -0 -0 -0 -0 -0 -0 -0 -0 -0 -0 -0 -0 -0 -0 -0 -0 -0 -0 -0 -0 -0 -0
-0 -0 -0 -0 -0 -0 -0 -0 -0 -0 -8 -0 -0 -0 -0 -0 -0 -0 -0 -0 -0 -0 -0 -0 -0 -0 -0 -0 -0 -0 -0 -0 -0 -0 -0 -0 -0 -0 -0 -0 -0 -0 -0 -0 -0 -0 -0
-0 -0 -0 -0 -0 -0 -0 -0 -0 -1 -8 -0 -0 -0 -0 -0 -0 -0 -0 -0 -0 -0 -0 -0 -0 -0 -0 -0 -0 -0 -0 -0 -0 -0 -0 -0 -0 -0 -0 -0 -0 -0 -0 -0 -0 -0 -0
-0 -0 -0 -0 -0 -0 -0 -0 -0 -0 -10 -0 -0 -0 -0 -0 -0 -0 -0 -0 -0 -0 -0 -0 -0 -0 -0 -0 -0 -0 -0 -0 -0 -0 -0 -0 -0 -0 -0 -0 -0 -0 -0 -0 -0 -0 -0
-0 -0 -0 -0 -1 -0 -0 -0 -0 -0 -0 -0 -0 -0 -0 -0 -0 -0 -0 -0 -0 -0 -0 -0 -0 -0 -0 -0 -0 -0 -0 -0 -0 -0 -0 -0 -0 -0 -0 -0 -0 -0 -0 -0 -0 -0 -0
-0 -0 -0 -0 -0 -0 -0 -0 -0 -0 -0 -0 -0 -0 -0 -0 -0 -0 -0 -0 -0 -0 -0 -0 -0 -0 -0 -0 -0 -0 -0 -0 -0 -0 -0 -0 -0 -0 -0 -0 -0 -0 -0 -0 -0 -0 -0
-0 -0 -0 -0 -0 -1 -1 -0 -0 -0 -0 -12 -23 -0 -0 -0 -0 -0 -0 -0 -0 -0 -0 -0 -0 -0 -0 -0 -0 -0 -0 -0 -0 -0 -0 -0 -0 -0 -0 -0 -0 -0 -0 -0 -0 -0 -0
-0 -0 -0 -0 -0 -0 -0 -0 -0 -1 -0 -3 -0 -8 -51 -0 -0 -0 -0 -0 -0 -0 -0 -0 -0 -0 -0 -0 -0 -0 -0 -0 -0 -0 -0 -0 -0 -0 -0 -0 -0 -0 -0 -0 -0 -0 -0
-0 -0 -0 -0 -0 -0 -0 -0 -0 -0 -1 -0 -0 -0 -11 -1 -2 -2 -0 -0 -0 -0 -0 -0 -0 -0 -0 -0 -0 -0 -0 -0 -0 -0 -0 -0 -0 -0 -0 -0 -0 -0 -0 -0 -0 -0 -0
-2 -0 -0 -0 -1 -0 -0 -0 -0 -0 -0 -1 -1 -0 -1 -0 -0 -0 -1 -0 -3 -0 -0 -0 -0 -0 -0 -0 -0 -0 -0 -0 -0 -0 -0 -0 -0 -0 -0 -0 -0 -0 -0 -0 -0 -0 -0
-0 -0 -0 -0 -0 -0 -0 -2 -0 -1 -1 -1 -1 -0 -0 -0 -0 -0 -1 -1 -4 -3 -0 -0 -0 -0 -0 -0 -0 -0 -0 -0 -0 -0 -0 -0 -0 -0 -0 -0 -0 -0 -0 -0 -0 -0 -0
-0 -0 -0 -0 -0 -0 -0 -1 -0 -0 -2 -8 -17 -5 -0 -0 -1 -0 -0 -0 -5 -5 -0 -12 -0 -0 -0 -0 -0 -0 -0 -0 -0 -0 -0 -0 -0 -0 -0 -0 -0 -0 -0 -0 -0 -0 -0
-0 -0 -0 -0 -0 -0 -0 -0 -1 -0 -0 -6 -5 -17 -0 -0 -2 -0 -1 -0 -0 -2 -5 -10 -0 -0 -0 -0 -0 -0 -0 -0 -0 -0 -0 -0 -0 -0 -0 -0 -0 -0 -0 -0 -0 -0 -0
-0 -0 -0 -0 -0 -0 -0 -0 -0 -0 -0 -9 -4 -18 -1 -0 -0 -0 -0 -0 -0 -0 -0 -1 -22 -0 -0 -0 -0 -0 -0 -0 -0 -0 -0 -0 -0 -0 -0 -0 -0 -0 -0 -0 -0 -0 -0
-0 -0 -0 -0 -4 -3 -0 -1 -1 -1 -0 -1 -4 -12 -3 -0 -0 -0 -0 -0 -0 -0 -0 -2 -0 -23 -56 -0 -0 -0 -0 -0 -0 -0 -0 -0 -0 -0 -0 -0 -0 -0 -0 -0 -0 -0 -0
Wind_Speed
12 12 13 13 14 14 14 14 14 14 15 15 15 14 12 11 10 9 9 9 10 11 12 12 13 12 6 3 2 4 3 5 5 6 6 6 7 5 4 5 7 5 5 10 12 12 12
11 12 13 13 13 14 14 14 15 14 15 16 16 13 12 11 10 11 11 10 9 9 10 12 12 12 1 2 2 3 1 5 4 4 6 5 3 5 4 4 2 4 8 12 9 13 10
11 12 12 12 13 13 14 15 15 15 16 16 16 14 11 10 11 11 11 11 10 9 8 9 10 4 3 7 2 3 2 3 3 1 1 1 1 2 3 5 4 8 8 11 10 10 8
10 11 12 12 12 13 13 14 15 16 17 18 18 15 12 11 10 11 11 11 10 10 8 7 5 2 5 1 2 4 5 5 4 4 4 4 4 4 3 4 6 4 3 4 7 6 6
10 10 11 12 12 13 14 14 16 16 18 19 19 17 15 13 12 11 10 11 10 9 7 6 1 2 7 0 1 4 1 3 5 5 5 6 2 3 3 2 4 2 4 6 7 2 5
10 10 11 12 12 14 14 15 16 16 18 19 20 19 15 14 13 12 12 7 2 6 3 3 3 2 3 2 1 2 3 2 3 5 5 2 2 2 2 2 4 7 6 6 8 5 2
9 10 11 12 12 13 15 15 16 17 18 19 19 18 16 14 13 13 8 2 5 3 1 6 3 4 1 4 2 4 2 1 2 2 2 4 1 7 9 6 8 7 6 11 16 7 4
10 10 11 11 12 13 14 15 16 16 18 19 18 18 16 15 15 12 4 5 3 3 6 6 4 4 4 3 3 3 1 1 1 4 6 4 7 11 7 7 8 8 9 11 9 3 6
9 10 11 12 13 14 15 15 16 17 18 19 18 19 17 15 14 4 4 2 1 1 0 4 2 3 1 0 4 2 4 2 5 3 5 4 10 6 5 9 10 5 6 6 7 6 4
9 10 11 12 13 14 15 16 16 17 17 17 19 19 21 21 3 3 2 2 2 1 5 4 1 1 0 1 4 1 2 1 3 5 5 7 5 2 6 7 3 7 4 5 10 5 3
9 10 11 11 12 13 14 15 16 17 16 17 18 19 20 12 2 3 2 4 4 3 6 3 2 2 1 2 5 1 1 2 4 6 2 10 5 3 5 4 2 11 9 14 13 5 4
10 10 11 11 11 12 13 14 15 15 16 17 18 18 17 4 2 1 3 4 4 7 4 1 1 2 3 3 3 2 1 1 5 4 4 10 4 3 5 8 5 8 9 8 3 3 3
13 13 13 13 12 10 11 12 13 15 16 17 18 19 7 3 2 4 3 3 6 6 3 3 2 1 2 3 3 1 2 5 3 8 6 7 3 1 0 6 5 10 7 6 8 7 4
16 15 15 15 19 16 13 11 13 15 16 17 21 17 3 2 2 4 3 5 3 4 4 0 3 2 3 1 3 2 3 2 1 0 3 2 11 1 1 1 4 5 3 5 3 3 7
15 16 16 19 17 18 19 15 13 12 16 17 17 4 1 1 1 3 5 3 9 6 3 1 2 1 2 2 2 2 3 4 3 2 1 5 7 4 3 1 4 6 4 3 1 2 3
15 16 16 17 18 18 19 20 19 14 14 15 4 4 2 1 2 3 5 7 5 2 4 2 4 4 3 2 1 0 2 3 4 2 4 2 7 4 1 1 2 3 3 5 3 3 5
16 16 17 17 17 18 19 19 19 21 15 19 2 4 2 2 3 4 4 8 4 1 2 4 3 3 6 3 4 3 5 2 3 4 3 2 3 8 3 1 2 2 2 1 2 5 3
16 16 16 16 16 18 18 18 18 20 19 5 2 2 2 2 1 3 3 6 1 4 2 3 2 5 6 5 3 4 4 2 5 4 2 4 3 6 6 4 1 1 2 3 5 6 3
14 16 16 16 16 16 18 18 20 21 21 3 3 4 2 3 4 4 5 5 4 5 5 6 5 6 3 5 3 6 3 3 5 4 3 2 2 5 9 2 2 2 3 3 2 2 6
15 15 14 15 15 16 16 17 18 20 21 4 2 4 3 2 2 3 3 5 5 4 4 5 3 4 4 4 5 4 4 4 6 5 6 3 2 7 7 8 0 6 4 4 2 3 4
14 15 14 11 14 16 19 19 19 19 21 4 3 5 4 3 5 5 4 4 3 3 4 4 2 8 7 6 5 6 6 3 2 4 3 5 5 4 8 13 9 12 15 11 9 9 7
12 14 15 14 15 15 17 19 18 20 21 2 3 3 4 4 5 4 5 4 10 7 7 5 6 6 9 7 10 8 8 5 7 4 6 2 4 2 7 5 6 9 12 13 14 9 9
11 12 15 14 13 13 15 18 18 18 12 3 4 4 3 3 3 11 6 7 7 5 7 8 12 7 8 18 15 4 5 4 7 10 8 7 4 1 6 6 10 6 4 3 2 2 3
7 10 12 13 11 12 12 15 17 16 13 2 1 2 4 11 10 13 18 20 19 15 14 9 6 7 5 3 5 3 3 4 6 7 7 7 5 3 5 5 2 5 2 4 4 0 2
12 9 12 11 13 13 10 12 14 14 13 3 2 2 3 12 15 18 19 15 17 16 21 17 14 7 7 5 2 2 3 4 4 1 6 4 5 2 3 3 7 2 4 5 5 5 3
11 12 10 10 13 12 10 10 11 13 12 2 2 3 4 8 11 15 18 19 18 15 15 17 4 3 4 5 4 9 9 6 5 1 3 3 4 5 2 4 7 5 3 2 3 5 5
15 14 13 13 14 14 15 14 12 12 14 4 3 3 4 10 16 17 14 14 9 10 13 12 4 4 2 6 9 7 8 8 9 10 8 4 3 11 5 5 8 8 6 4 4 7 6
17 17 16 16 16 17 18 15 15 13 15 7 4 3 3 7 15 19 20 22 14 12 18 5 2 3 0 5 8 6 6 9 7 9 12 13 11 6 5 4 10 9 5 7 5 4 6
20 19 18 19 17 16 17 16 18 16 16 13 7 4 6 7 17 22 29 26 24 26 20 14 22 13 7 6 4 4 5 3 8 11 4 6 10 11 12 10 5 8 3 4 5 7 5
Wind_Direction
38 34 30 26 24 22 18 17 11 8 4 360 358 354 347 338 329 325 319 317 318 320 323 323 325 329 360 353 267 162 38 324 322 344 4 12 35 7 1 319 334 255 318 322 311 306 301
37 34 32 28 23 20 17 14 9 5 3 359 357 355 349 339 328 321 316 312 308 310 316 320 321 319 12 343 179 153 144 314 25 8 4 55 1 300 268 270 244 260 291 281 280 282 275
36 32 31 26 24 20 16 13 8 2 0 359 356 353 348 340 328 321 315 309 304 299 305 314 315 305 327 237 193 147 279 231 205 163 16 46 320 18 304 286 276 276 286 294 272 259 251
36 31 31 24 20 18 15 10 6 1 359 357 355 351 343 337 327 319 312 303 295 290 289 295 297 299 247 229 335 273 259 284 208 225 189 224 234 253 212 280 312 332 322 327 282 287 259
29 26 22 20 15 11 11 9 5 1 359 358 354 350 341 334 324 313 303 296 287 278 263 283 328 182 284 59 285 211 182 267 311 281 233 228 173 243 326 290 327 18 266 272 301 338 303
22 20 19 14 12 9 8 5 3 1 359 357 355 349 342 334 323 311 300 271 273 315 245 225 263 26 268 273 255 213 222 180 273 312 320 181 197 275 305 91 301 303 296 283 255 247 254
19 15 19 7 10 9 5 2 0 358 358 356 353 350 342 335 326 322 338 39 18 1 321 210 199 240 242 296 134 209 257 296 240 277 277 211 264 261 249 216 228 252 262 263 279 246 213
7 7 7 5 4 4 3 360 356 356 354 352 349 347 343 336 327 328 298 70 131 190 318 274 252 289 266 120 300 213 136 283 299 285 308 5 249 267 262 283 266 258 269 278 278 228 218
4 356 1 359 359 1 357 357 354 353 351 347 345 344 339 333 320 356 72 94 244 69 324 297 219 269 267 59 280 233 160 329 241 266 285 224 252 315 314 304 311 272 244 272 266 317 269
357 357 354 355 355 355 354 352 352 351 346 344 342 342 339 328 38 321 43 328 312 114 63 280 271 247 298 246 287 230 139 176 299 272 297 253 265 312 329 296 330 308 238 291 295 359 279
345 344 341 344 345 345 346 346 347 346 342 340 340 339 338 331 239 68 282 329 309 64 49 247 241 174 195 185 285 257 27 94 238 258 46 261 295 316 308 258 13 253 298 286 289 215 34
321 320 323 326 329 331 333 333 337 338 337 336 335 334 341 46 325 312 328 350 48 42 269 310 173 278 330 184 248 176 201 306 254 291 213 243 288 191 233 296 253 285 308 314 52 94 37
356 346 337 328 316 314 320 322 328 333 332 330 329 327 324 308 283 318 349 57 31 120 262 225 241 50 352 279 307 170 273 331 4 9 343 321 311 158 221 324 336 19 18 351 1 5 239
17 8 358 2 8 343 316 316 324 328 328 327 326 320 252 212 329 9 51 44 96 248 245 201 197 290 199 55 247 281 304 344 310 185 297 31 332 306 186 226 271 308 97 131 300 314 286
17 15 12 12 4 358 3 336 322 326 326 329 327 340 308 265 335 69 77 59 209 206 163 202 322 285 239 234 248 18 223 202 161 122 78 0 277 326 205 198 119 319 29 181 226 271 26
14 16 14 12 6 1 2 358 353 329 324 330 326 320 256 243 64 62 84 236 240 177 125 128 214 190 242 214 199 356 252 196 171 154 134 286 300 256 311 14 236 189 284 26 11 342 320
15 15 12 10 5 4 5 358 355 354 326 325 345 342 276 73 67 51 182 232 264 200 155 178 241 231 228 238 191 244 252 195 166 180 154 208 165 290 341 226 233 355 11 312 182 141 201
12 9 7 4 6 6 1 359 357 355 341 11 334 312 296 65 70 225 204 212 245 181 124 237 234 222 210 192 235 241 247 236 144 143 204 202 174 276 263 302 317 190 222 129 117 299 262
7 4 3 359 359 2 3 5 0 358 2 337 296 263 333 96 214 235 273 265 222 170 200 193 223 218 183 205 224 208 234 139 147 145 192 169 267 324 337 343 312 274 213 214 142 101 231
3 357 354 355 354 356 355 355 356 357 358 332 323 310 315 61 262 212 264 250 237 201 227 195 212 135 159 233 232 261 234 200 176 164 141 102 245 198 208 237 40 288 260 291 231 184 245
0 353 357 360 15 13 6 3 357 354 347 310 206 247 225 261 268 230 200 253 295 252 216 191 253 212 181 204 207 217 224 171 172 172 161 146 222 229 248 266 274 269 278 278 213 222 219
355 351 349 1 9 3 2 355 351 354 343 249 292 319 349 281 299 280 200 238 223 249 164 229 210 245 199 208 204 206 180 191 196 181 174 197 266 285 295 277 268 283 272 262 254 243 247
345 344 347 348 354 360 2 356 359 358 7 342 357 350 323 253 250 266 244 241 252 248 241 210 206 215 195 220 230 216 198 181 174 157 188 163 186 96 264 331 319 290 225 259 211 194 196
326 328 336 342 351 355 355 359 354 356 9 302 328 283 280 271 264 262 267 268 276 278 284 284 254 192 223 105 104 135 174 213 180 208 168 166 161 161 263 349 319 248 170 227 171 264 306
304 314 323 329 327 326 347 345 341 350 354 4 320 300 281 273 272 274 281 283 277 266 269 273 261 240 153 129 100 265 325 346 247 28 212 173 146 213 210 230 292 289 199 178 189 236 211
306 304 303 311 303 317 319 317 327 333 329 333 287 262 254 287 260 258 264 270 276 280 281 271 252 230 150 151 168 202 215 193 222 240 8 108 107 147 171 222 226 234 181 140 119 266 181
303 302 298 301 297 304 308 315 310 320 320 310 269 265 262 277 271 240 258 271 271 259 259 265 287 264 162 171 213 207 228 185 189 181 177 148 180 207 215 246 280 246 158 138 141 244 161
305 297 294 293 301 302 302 307 306 306 306 314 263 230 256 277 275 267 259 259 266 259 262 295 279 184 305 211 205 200 215 214 196 178 178 169 159 184 175 193 267 162 100 170 200 84 134
304 303 295 289 292 298 295 301 295 292 298 303 288 217 244 254 277 291 278 266 258 259 262 255 248 267 217 195 215 176 231 187 191 230 152 197 191 177 182 203 210 206 168 154 147 146 155